カタログに戻る

STARLINK-31705

運用中通信VLEO
NORAD 59382·PAYLOAD·🇺🇸 United States

打ち上げ Apr 2, 2024 から Vandenberg Space Force Base

Loading…

次のパス (今後24時間)

TLE

最新Source: CelesTrak SupGP

元期: Sep 14, 2026, 21:16 UTC

1 59382C 24062J   26257.88659722  .00006666  00000+0  19701-3 0  2571
2 59382  53.1574  93.7846 0001058  82.5115 208.2101 15.34376975    12

AllMySatでSTARLINK-31705をリアルタイム追跡

Download on the App Store